FENGYUN 1C DEB, 31080

Orbit data source: Space-Track

FENGYUN 1C DEB, 31080 is space debris in SSO originally from a launch on Mon, 10 May 1999 UTC launched from the Taiyaun Space Center, China (TSC). Fengyun 1C debris stems from the Chinese weather satellite Fengyun-1C, which was intentionally destroyed by a Chinese anti-satellite missile in 2007. This event dramatically increased the amount of space debris, with thousands of trackable fragments posing hazards to satellites and human spaceflight. The Fengyun 1C debris cloud has become a focal point in discussions about space sustainability and the need for international regulations to prevent the creation of new debris.

Loading next visibility...
Identifier
31080, 1999-025BGA
Orbit
SSO
Country
Flag of CNCN / PRC
Related business
Manufacturer
Unknown
Mission
Spacecraft
Bus & Motor
Unknown
Mass
Unknown
Launch date (UTC)
1999-05-10 (27 years ago)
Launch vehicle
Unknown
Launch site
Taiyaun Space Center, China (TSC)
Object type
Payload
Rocket body
Debris
Shape & HBR
Unknown shape, 1.1 m
Radar Cross Section
Medium (>0.1 m² and <1 m²)

Expand to show TLE details & history
Last TLE update: 1 month ago

TLE from 1 month ago
0 FENGYUN 1C DEB
1 31080U 99025BGA 26179.22487909  .00002965  00000-0  12475-2 0  9996
2 31080  99.1149 332.5138 0066465 247.2221 112.1926 14.25411477657667
Epoch: 2026-06-28T05:23Z
TLE epoch observation values (Epoch: 2026-06-28T05:23:49.553Z)
Latitude
0.00002°
Longitude
-24.77042°
Altitude
828.332 km
Speed
7.429 km/s
True Right ascension
22h 10m 03s
True Declination
0° 00' 00"
Sunlit
Object was in full shadow at epoch
Visualization orbit readout
Latitude
Unknown
Longitude
Unknown
Altitude
Unknown
Speed
Unknown
Apparent Right ascension
Unknown
Apparent Declination
Unknown
Sunlit
N/A
Visualization observer readout
Local Sidereal Time
00:54:04
Azimuth
Unknown
Elevation
Unknown
Doppler factor
Unknown
Orbital elements
Apogee altitude
852.019 km
Perigee altitude
756.543 km
Semi-major axis
7,182.418 km
Eccentricity
0.00665
Inclination
99.1149°
RAAN
332.5138°
Arg. of periapsis
247.2221°
True anomaly
112.89559°
Mean anomaly
112.1926°
Eccentric anomaly
112.54432°
Mean motion
3.56564 °/min
Orbital period
100.96 mins
BSTAR
0.0012475
Loading maneuver chart data...
Computing Atmospheric mass density...
Loading historical data...
Loading historical data...
Loading historical data...
Loading historical data...
Loading historical data...
Loading historical data...
Loading historical data...

Documentation

Showing up to 5 results
|